Regional Weather Roundup
Issued by NWS

Home | Current Version | Previous Version | Text Only | Print | Product List | Glossary On
Versions: 1 2 3 4 5 6 7 8 9 10 11 12 13 14 15 16 17 18 19 20 21 22 23 24 25 26 27 28 29 30 31 32 33 34 35 36 37 38 39 40 41 42 43 44 45 46 47 48 49 50
342
ASUS43 KDMX 201106
RWRIA

WEATHER ROUNDUP FOR IOWA
NATIONAL WEATHER SERVICE DES MOINES IA
600 AM CDT FRI OCT 20 2017

NOTE: "FAIR" INDICATES FEW OR NO CLOUDS BELOW 12,000 FEET WITH NO
SIGNIFICANT WEATHER AND/OR OBSTRUCTIONS TO VISIBILITY.

* - THESE STATIONS ARE NOT NWS STATIONS...THUS NOT UNDER NWS
QUALITY CONTROL.  THEY ALSO DO NOT REPORT WEATHER SUCH
AS PRECIPITATION OR FOG.

IAZ001>003-012>014-020>022-031>034-043>046-201200-
   NORTHWEST IOWA

CITY           SKY/WX    TMP DP  RH WIND       PRES   REMARKS
CARROLL *        N/A     73  72  94 S15       29.98S
CHEROKEE *       N/A     55  50  85 S8        29.92
DENISON *        N/A     55  52  88 S8        29.98S
LE MARS *        N/A     57  50  77 S14G20    29.88S
ORANGE CITY *    N/A     55  50  82 S9        29.89S
SHELDON *        N/A     57  48  72 S9G16     29.88S
SIOUX CITY       N/A     49  48  97 SE10      29.90S
SPENCER          N/A     56  49  77 S9        29.92S
STORM LAKE *     N/A     54  50  87 S12       29.94F
$$

IAZ055>058-069>071-079>083-090>094-201200-
   SOUTHWEST IOWA

CITY           SKY/WX    TMP DP  RH WIND       PRES   REMARKS
ATLANTIC *       N/A     55  52  88 S7        30.00S
AUDUBON *        N/A     55  52  88 S7        30.00F
CLARINDA *       N/A     54  52  94 S6        30.05S
COUNCIL BLFS *   N/A     57  55  94 S12       29.98S
CRESTON *        N/A     52  50  93 S9        30.06S
HARLAN  *        N/A     55  54  94 S8        30.01F
LAMONI           N/A     52  50  93 S8        30.07S
RED OAK *        N/A     57  54  88 S8        30.01S
SHENANDOAH *     N/A     57  52  82 S12       30.01S
$$

IAZ047>049-059>061-072>074-084-201200-
   CENTRAL IOWA

CITY           SKY/WX    TMP DP  RH WIND       PRES   REMARKS
AMES             N/A     54  52  93 S8        30.02R
ANKENY *         N/A     55  52  88 S7        30.05R
BOONE *          N/A     57  52  82 SW12G20   30.01R
CHARITON *       N/A     54  50  87 S8        30.07R
DES MOINES     MOCLDY    56  51  84 S8        30.04R
KNOXVILLE *      N/A     55  50  82 S9        30.05R
MARSHALLTOWN     N/A     55  51  86 S10       30.03S
NEWTON *         N/A     52  50  93 S9        30.06R
PELLA *          N/A     56  50  81 S7        30.07S
PERRY *          N/A     52  51  96 S6        30.01S
$$

IAZ004>006-015-016-023>025-035-036-201200-
   NORTH CENTRAL IOWA

CITY           SKY/WX    TMP DP  RH WIND       PRES   REMARKS
ALGONA *         N/A     52  52 100 S12       29.96S
CLARION *        N/A     54  54 100 S12       29.99S
ESTHERVILLE      N/A     49  48  97 S12       29.92S
FORT DODGE *     N/A     55  50  83 S9        29.99R
MASON CITY       N/A     48  46  93 S7        30.00S
FOREST CITY *    N/A     54  50  87 S9        29.98R
WEBSTER CITY *   N/A     52  50  93 S7        29.98S
IOWA FALLS *     N/A     54  51  89 S6        30.03R
$$

IAZ007>011-017>019-026>030-037>042-050>054-066-201200-
   NORTHEAST IOWA

CITY           SKY/WX    TMP DP  RH WIND       PRES   REMARKS
CEDAR RAPIDS     N/A     52  49  89 S6        30.08R
CHARLES CITY *   N/A     52  52 100 S8        30.02S
CLINTON *        N/A     52  49  89 SE6       30.12R
DECORAH *        N/A     57  50  77 S8G15     30.02R
DUBUQUE          N/A     52  48  86 S8        30.09S
MONTICELLO *     N/A     48  46  93 SE5       30.08S
OELWEIN *        N/A     50  50 100 S8        30.06R
WATERLOO         N/A     52  48  86 S6        30.04R
$$

IAZ064-065-067-068-078-201200-
   EAST CENTRAL IOWA

CITY           SKY/WX    TMP DP  RH WIND       PRES   REMARKS
DAVENPORT        N/A     54  49  83 S7        30.13R
IOWA CITY        N/A     49  47  93 CALM      30.11S FOG
MUSCATINE *      N/A     46  45  93 CALM      30.12R
QUAD CITIES      N/A     53  47  79 CALM      30.11R
$$

IAZ062-063-075>077-085>089-095>099-201200-
   SOUTHEAST IOWA

CITY           SKY/WX    TMP DP  RH WIND       PRES   REMARKS
BURLINGTON       N/A     54  50  86 S5        30.12R
FAIRFIELD *      N/A     55  48  76 S9        30.09S
FORT MADISON *   N/A     59  52  77 S8        30.13R
KEOKUK *         N/A     57  50  77 SW8       30.12R
OSKALOOSA *      N/A     48  46  93 S8        30.08S
OTTUMWA          N/A     53  49  86 S9        30.08R
WASHINGTON *     N/A     50  48  93 S9        30.11S
$$

ABBREVIATIONS USED IN REMARKS
   TC - TEMPERATURES IN CELSIUS
  WCI - WIND CHILL INDEX
   HX - HEAT INDEX
  VSB - VISIBILITY
$$





USA.gov is the U.S. government's official web portal to all federal, state and local government web resources and services.